Weather History for Columbus, OH

Change the Weather History Date:

Wednesday, December 19, 2012

  Actual Average Record
Temperature  
Mean Temperature 44 °F 32 °F  
Max Temperature 48 °F 39 °F 61 °F (1895)
Min Temperature 39 °F 26 °F -8 °F (1884)
Degree Days  
Heating Degree Days 21 33  
Month to date heating degree days 379 569  
Since 1 July heating degree days 1496 1583  
Cooling Degree Days 0 0  
Month to date cooling degree days 0 0  
Year to date cooling degree days 1439 1024  
Moisture  
Dew Point 36 °F    
Average Humidity 75    
Maximum Humidity 85    
Minimum Humidity 65    
Precipitation  
Precipitation 0.00 in 0.09 in 1.74 in (2008)
Month to date precipitation 3.19 1.82  
Year to date precipitation 34.76 38.16  
Snow  
Snow 0.00 in 0.20 in 4.30 in (1995)
Month to date snowfall T 2.6  
Since 1 July snowfall 0.8 3.7  
Snow Depth 0.00 in    
Sea Level Pressure  
Sea Level Pressure 29.98 in    
Wind  
Wind Speed 7 mph (WSW)    
Max Wind Speed 16 mph    
Max Gust Speed 21 mph    
Visibility 8 miles    
Events      
T = Trace of Precipitation, MM = Missing Value Source: NWS Daily Summary

Daily Weather History Graph

Daily Weather History Graph

Search for Another Location

Airport:

Trip Planner

Search our weather history database for the weather conditions in past years. The results will help you decide how hot, cold, wet, or windy it might be!

Date:

Astronomy

Dec. 19, 2012 Rise Set
Actual Time 7:49 AM EST 5:08 PM EST
Civil Twilight 7:18 AM EST 5:39 PM EST
Nautical Twilight 6:44 AM EST 6:13 PM EST
Astronomical Twilight 6:11 AM EST 6:46 PM EST
Moon 11:57 AM EST (12/19) No Moon Set
Length of Visible Light 10h 21m
Length of Day
9h 19m
Waxing Crescent, 45% of the Moon is Illuminated
Dec 19
Waxing Crescent
Dec 20
First Quarter
Dec 28
Full
Jan 4
Last Quarter
Jan 11
New

Hourly Weather History & Observations

Time (EST) Temp. Windchill Dew Point Humidity Pressure Visibility Wind Dir Wind Speed Gust Speed Precip Events Conditions
12:51 AM 41.0 °F 34.3 °F 35.1 °F 79% 29.77 in 10.0 mi SW 11.5 mph - N/A   Overcast
1:51 AM 39.9 °F 33.4 °F 34.0 °F 79% 29.77 in 10.0 mi SW 10.4 mph - N/A   Mostly Cloudy
2:51 AM 39.0 °F 35.7 °F 34.0 °F 82% 29.81 in 10.0 mi SW 4.6 mph - N/A   Scattered Clouds
3:32 AM 42.8 °F 37.0 °F 35.6 °F 76% 29.81 in 10.0 mi WSW 10.4 mph - N/A   Overcast
3:51 AM 42.1 °F 36.1 °F 36.0 °F 79% 29.83 in 10.0 mi West 10.4 mph - N/A   Overcast
4:07 AM 42.8 °F 36.2 °F 35.6 °F 76% 29.82 in 10.0 mi WSW 12.7 mph - N/A   Overcast
4:26 AM 42.8 °F 36.2 °F 35.6 °F 76% 29.83 in 10.0 mi West 12.7 mph - N/A   Overcast
4:51 AM 42.8 °F 36.6 °F 35.6 °F 76% 29.84 in 10.0 mi West 11.5 mph - N/A   Overcast
5:51 AM 43.0 °F 36.4 °F 37.0 °F 80% 29.88 in 9.0 mi West 12.7 mph - N/A   Overcast
6:24 AM 42.8 °F 36.2 °F 37.4 °F 81% 29.89 in 8.0 mi West 12.7 mph - N/A   Overcast
6:51 AM 43.0 °F 37.2 °F 37.0 °F 80% 29.93 in 7.0 mi West 10.4 mph - N/A   Overcast
7:51 AM 43.0 °F 36.8 °F 37.9 °F 82% 29.97 in 6.0 mi West 11.5 mph - N/A   Haze
8:51 AM 43.0 °F 36.8 °F 37.9 °F 82% 29.99 in 5.0 mi West 11.5 mph - N/A   Haze
9:10 AM 42.8 °F 37.5 °F 37.4 °F 81% 29.99 in 6.0 mi West 9.2 mph - N/A   Haze
9:51 AM 42.8 °F 38.0 °F 37.4 °F 81% 30.00 in 5.0 mi West 8.1 mph - N/A   Haze
10:51 AM 43.0 °F 37.7 °F 37.0 °F 80% 30.05 in 5.0 mi West 9.2 mph - N/A   Haze
11:51 AM 44.1 °F 40.8 °F 37.0 °F 76% 30.06 in 6.0 mi WNW 5.8 mph - N/A   Haze
12:51 PM 45.0 °F 42.6 °F 36.0 °F 71% 30.06 in 6.0 mi West 4.6 mph - N/A   Haze
1:51 PM 46.0 °F - 37.0 °F 71% 30.05 in 6.0 mi Calm Calm - N/A   Haze
2:51 PM 46.0 °F - 36.0 °F 68% 30.07 in 7.0 mi Calm Calm - N/A   Mostly Cloudy
3:51 PM 46.0 °F 43.9 °F 35.1 °F 66% 30.08 in 7.0 mi SSW 4.6 mph - N/A   Mostly Cloudy
4:51 PM 46.0 °F - 35.1 °F 66% 30.10 in 8.0 mi Calm Calm - N/A   Mostly Cloudy
4:58 PM 44.6 °F 43.1 °F 35.6 °F 71% 30.09 in 7.0 mi South 3.5 mph - N/A   Mostly Cloudy
5:51 PM 45.0 °F - 37.0 °F 74% 30.11 in 7.0 mi Calm Calm - N/A   Mostly Cloudy
5:58 PM 44.6 °F - 37.4 °F 76% 30.09 in 8.0 mi Calm Calm - N/A   Mostly Cloudy
6:51 PM 42.1 °F 39.2 °F 36.0 °F 79% 30.12 in 7.0 mi SE 4.6 mph - N/A   Mostly Cloudy
7:51 PM 42.1 °F 40.2 °F 36.0 °F 79% 30.12 in 6.0 mi ESE 3.5 mph - N/A   Haze
8:51 PM 42.1 °F 38.4 °F 37.0 °F 82% 30.11 in 6.0 mi SE 5.8 mph - N/A   Haze
9:51 PM 42.1 °F 37.7 °F 37.0 °F 82% 30.09 in 7.0 mi ESE 6.9 mph - N/A   Mostly Cloudy
10:51 PM 42.1 °F 38.4 °F 36.0 °F 79% 30.09 in 8.0 mi ESE 5.8 mph - N/A   Overcast
11:51 PM 42.1 °F 37.7 °F 36.0 °F 79% 30.05 in 8.0 mi ESE 6.9 mph - N/A   Mostly Cloudy